Weather History for Vacaville, CA

Change the Weather History Date:

Monday, July 14, 2014

  Actual Average Record
Temperature  
Mean Temperature 83 °F -  
Max Temperature 102 °F 96 °F 111 °F (1972)
Min Temperature 66 °F 57 °F 49 °F (1951)
Cooling Degree Days 18    
Growing Degree Days 33 (Base 50)    
Moisture  
Dew Point 51 °F    
Average Humidity 39    
Maximum Humidity 68    
Minimum Humidity 15    
Precipitation  
Precipitation 0.00 in - - ()
Sea Level Pressure  
Sea Level Pressure 29.83 in    
Wind  
Wind Speed 7 mph (South)    
Max Wind Speed 28 mph    
Max Gust Speed 36 mph    
Visibility 10 miles    
Events Rain    
Averages and records for this station are not official NWS values.
T = Trace of Precipitation, MM = Missing Value Source: NWS Daily Summary

Daily Weather History Graph

Daily Weather History Graph

Search for Another Location

Airport:

Trip Planner

Search our weather history database for the weather conditions in past years. The results will help you decide how hot, cold, wet, or windy it might be!

Date:

Astronomy

Jul. 14, 2014 Rise Set
Actual Time 5:55 AM PDT 8:31 PM PDT
Civil Twilight 5:24 AM PDT 9:02 PM PDT
Nautical Twilight 4:46 AM PDT 9:40 PM PDT
Astronomical Twilight 4:03 AM PDT 10:23 PM PDT
Moon 10:08 PM PDT (7/14) 8:42 AM PDT (7/14)
Length of Visible Light 15h 37m
Length of Day
14h 35m
Waning Gibbous, 92% of the Moon is Illuminated
Jul 14
Waning Gibbous
Jul 18
Last Quarter
Jul 26
New
Aug 3
First Quarter
Aug 10
Full

Hourly Weather History & Observations

Time (PDT) Temp. Heat Index Dew Point Humidity Pressure Visibility Wind Dir Wind Speed Gust Speed Precip Events Conditions
12:53 AM 72.0 °F - 54.0 °F 53% 29.81 in 10.0 mi East 5.8 mph - N/A   Clear
1:53 AM 68.0 °F - 54.0 °F 61% 29.81 in 10.0 mi ENE 5.8 mph - N/A   Clear
2:53 AM 66.9 °F - 54.0 °F 63% 29.82 in 10.0 mi Calm Calm - N/A   Clear
3:53 AM 66.0 °F - 54.0 °F 65% 29.81 in 10.0 mi Calm Calm - N/A   Clear
4:53 AM 66.9 °F - 55.0 °F 66% 29.82 in 10.0 mi East 3.5 mph - N/A   Clear
5:53 AM 66.0 °F - 55.0 °F 68% 29.82 in 10.0 mi Calm Calm - N/A   Clear
6:53 AM 71.1 °F - 55.9 °F 59% 29.83 in 10.0 mi Calm Calm - N/A   Clear
7:53 AM 77.0 °F - 54.0 °F 45% 29.84 in 10.0 mi South 3.5 mph - N/A   Clear
8:53 AM 84.0 °F 82.6 °F 54.0 °F 35% 29.85 in 10.0 mi SSE 4.6 mph - N/A   Clear
9:53 AM 91.0 °F - 51.1 °F 25% 29.85 in 10.0 mi Variable 4.6 mph - N/A   Clear
10:53 AM 93.9 °F - 51.1 °F 23% 29.85 in 10.0 mi ENE 9.2 mph - N/A   Clear
11:53 AM 95.0 °F - 52.0 °F 23% 29.86 in 10.0 mi SSE 5.8 mph - N/A   Clear
1:53 PM 100.9 °F - 52.0 °F 19% 29.83 in 10.0 mi East 6.9 mph - N/A   Clear
3:53 PM 100.9 °F - 46.0 °F 15% 29.81 in 10.0 mi SSW 10.4 mph 21.9 mph N/A   Clear
4:53 PM 100.9 °F - 45.0 °F 15% 29.81 in 10.0 mi WSW 9.2 mph - N/A   Clear
5:53 PM 93.0 °F - 48.9 °F 22% 29.80 in 10.0 mi SSW 8.1 mph 18.4 mph N/A   Clear
6:53 PM 79.0 °F - 51.1 °F 38% 29.82 in 10.0 mi SW 17.3 mph 26.5 mph N/A   Clear
7:53 PM 75.0 °F - 52.0 °F 44% 29.85 in 10.0 mi SW 21.9 mph 34.5 mph 0.00 in Rain Light Rain
8:53 PM 79.0 °F - 50.0 °F 36% 29.82 in 10.0 mi WSW 27.6 mph 35.7 mph 0.00 in Rain Light Rain
9:53 PM 82.9 °F - 43.0 °F 24% 29.82 in 10.0 mi SW 25.3 mph 32.2 mph 0.00 in   Clear
10:53 PM 82.0 °F - 43.0 °F 25% 29.83 in 10.0 mi SW 15.0 mph 25.3 mph N/A   Clear
11:53 PM 82.9 °F - 42.1 °F 24% 29.82 in 10.0 mi SW 16.1 mph 24.2 mph N/A   Clear